CST,Max TemperatureF,Mean TemperatureF,Min TemperatureF,Max Dew PointF,MeanDew PointF,Min DewpointF,Max Humidity, Mean Humidity, Min Humidity, Max Sea Level PressureIn, Mean Sea Level PressureIn, Min Sea Level PressureIn, Max VisibilityMiles, Mean VisibilityMiles, Min VisibilityMiles, Max Wind SpeedMPH, Mean Wind SpeedMPH, Max Gust SpeedMPH,PrecipitationIn, CloudCover, Events, WindDirDegrees
2012-11-1,37,34,32,34,28,19,93,77,56,29.95,29.86,29.80,10,10,3,15,7,22,0.00,8,Rain-Snow,323
2012-11-2,35,32,26,27,23,21,80,70,56,30.17,30.08,29.96,10,10,10,13,8,16,0.00,2,,11
2012-11-3,37,30,23,27,24,19,93,76,56,30.23,30.21,30.18,10,10,10,7,1,,0.00,4,,32
2012-11-4,35,27,19,28,22,14,93,80,56,30.24,30.21,30.18,10,10,10,6,0,,0.00,2,,38
2012-11-5,33,25,17,28,23,14,93,81,69,30.22,30.15,30.00,10,10,7,9,1,,0.00,4,,156
2012-11-6,35,34,32,34,31,27,100,90,80,29.99,29.84,29.76,10,6,1,12,8,17,0.00,8,Snow,166
2012-11-7,37,34,32,36,33,30,100,93,87,30.08,30.03,29.90,10,7,0,6,2,,0.00,8,Fog-Rain-Snow,207
2012-11-8,51,42,33,36,33,32,93,83,54,30.07,30.00,29.91,10,10,5,15,6,20,0.00,5,Rain,195
2012-11-9,42,38,35,37,35,32,93,85,76,30.10,30.08,30.03,10,10,7,9,3,,0.00,8,,65
2012-11-10,55,43,35,54,40,32,100,92,81,30.09,29.84,29.64,10,5,1,17,9,25,0.06,8,Rain-Thunderstorm,123
2012-11-11,59,44,30,54,43,27,94,87,67,29.76,29.64,29.59,10,8,3,17,11,25,0.59,7,Rain-Snow-Thunderstorm,225
2012-11-12,28,24,21,23,17,10,86,77,59,30.14,29.90,29.77,10,8,2,16,11,25,0.00,8,Snow,259
2012-11-13,35,29,23,23,19,16,80,68,44,30.33,30.28,30.15,10,10,10,10,7,17,0.00,3,,191
2012-11-14,41,36,32,30,27,23,87,75,65,30.32,30.26,30.18,10,10,2,10,6,,0.00,5,Snow,120
2012-11-15,51,38,26,32,29,21,93,70,44,30.38,30.21,30.15,10,10,10,15,7,20,0.00,1,,56
2012-11-16,41,30,19,32,22,18,93,73,42,30.48,30.42,30.37,10,10,7,9,2,16,0.00,1,,54
2012-11-17,51,43,35,37,34,32,93,79,58,30.40,30.35,30.31,10,6,2,15,10,21,0.00,3,,53
2012-11-18,53,45,37,32,32,30,81,61,41,30.32,30.24,30.18,10,9,7,15,10,22,0.00,3,,54
2012-11-19,55,46,37,37,34,32,81,64,47,30.19,30.10,30.05,10,10,10,15,7,18,0.00,5,,54
2012-11-20,51,42,30,39,34,28,100,84,58,30.11,30.09,30.05,10,6,0,6,1,,0.00,1,Fog,4
2012-11-21,51,40,28,43,36,27,100,80,58,30.09,29.95,29.81,10,7,0,13,4,16,0.00,0,Fog,186
2012-11-22,50,48,46,41,40,39,76,76,71,29.79,29.72,29.66,10,10,10,15,12,21,0.00,0,,187
2012-11-23,,,,,,,,,,,,,,,,,,,,,,
2012-11-24,24,24,23,21,16,12,93,74,59,30.00,29.88,29.77,10,7,2,16,5,21,0.02,5,Snow,186
2012-11-25,26,24,23,21,20,14,93,82,68,29.99,29.82,29.72,10,9,2,16,7,23,0.01,8,Snow,291
2012-11-26,23,14,5,18,9,1,92,77,63,30.26,30.18,29.99,10,9,2,16,7,22,0.00,5,Snow,304
2012-11-27,32,21,10,23,15,5,86,74,48,30.23,30.11,30.02,10,8,1,12,5,18,0.00,6,Snow,233
2012-11-28,26,22,19,21,16,10,86,73,55,30.23,30.14,30.08,10,10,5,12,7,18,0.00,4,Snow,261
2012-11-29,32,23,14,28,21,10,93,85,74,30.19,30.13,30.06,10,7,3,9,2,,0.00,6,,76
2012-11-30,32,28,24,30,25,14,93,86,64,30.22,30.18,30.12,10,9,2,12,6,18,0.00,8,,118